Terug naar catalogus

ARIANE 1 DEB

ActiefGTO
NORAD 19951·DEBRIS·🇫🇷 France

Gelanceerd Jul 2, 1985 vanaf Guiana Space Centre

Loading…

TLE

VerouderendSource: Space-Track

Epoch: Sep 14, 2026, 08:22 UTC

1 19951U 85056Q   26257.34908501 -.00000002  00000-0  23396-2 0  9999
2 19951   7.3260 223.3919 7050331  56.3064  43.3046  2.27452766109705

Volg ARIANE 1 DEB in realtime met AllMySat

Download on the App Store